sat.trackr.live / text

‹ back to catalog

UNKNOWN

NORAD 89177

UNKNOWN UNKNOWN UNKNOWN

§ Identity

Operator
Country
Launch date
Launch site
Launch vehicle
Mass (kg)
RCS (m²)

External: N2YO · Heavens-Above

§ Orbital elements

Epoch: 2026-09-14T04:39:52.929504Z

Period
104.82 min
Inclination
82.9184°
Eccentricity
0.0033703
Mean motion
13.73766422 rev/d
Perigee alt
961.3 km
Apogee alt
1,010.9 km
Semi-major
7,364.2 km
B*
4.3396e-5
RAAN
64.8941°
Arg perigee
96.1455°
Mean anomaly
264.3542°
Rev number
10,064

§ Raw data

UNKNOWN1 89177U          26257.19436261  .00000056  00000+0  43396-4 0  99952 89177  82.9184  64.8941 0033703  96.1455 264.3542 13.73766422100642

JSON: /api/v1/satellites/89177 · /tle

For live sub-satellite position, see the globe view (requires WebGL).

§ Visibility from observer

Set your observer location to see the next 7 days of passes ≥ 10°. The values pass through the URL so the page stays shareable.

No JS? Fill the form by hand. The geolocation button needs JavaScript.